Zurück zum Katalog

FENGYUN 1C DEB

AktivSSO
NORAD 31639·DEBRIS·🇨🇳 China

Gestartet May 10, 1999 von Taiyuan Satellite Launch Center

Loading…

Nächste Überflüge (nächste 24 Stunden)

TLE

AktuellSource: Space-Track

Epoche: Sep 12, 2026, 01:29 UTC

1 31639U 99025CAV 26255.06223589  .00000078  00000-0  92702-4 0  9991
2 31639  98.7658 188.1096 0161825 122.8941 302.6945 13.85263477974724

Verfolge FENGYUN 1C DEB in Echtzeit mit AllMySat

Download on the App Store